DW1549 Fauske NO current weather conditions

sailwx.info

Wind from 260 at 2 knots gusting 10

Air temperature 7.2° C
Dewpoint 4.2° C

Last reported at 2016-May-25 08:52 UTC.
Time now 2016-May-25 09:14 UTC

Location: N 67°16' E 015°25'.
View on Google Maps.

See reports from other nearby stations

  
Tides and Currents Weather Stations Pressure Air Temp Water Temp Dewpoint Dewpoint Depression Visibility Wind Speed Wind Dir Waves Ship Positions
date/time (UTC)wind fromknots sea level pressurealtimeterstation pressurevisibilityair tempwater tempwave heightnotes
2016-May-25 08:52 260 2 gusting 10 7.2
2016-May-25 08:42 241 4 gusting 8 7.2
2016-May-25 08:22 265 2 gusting 10 7.2
2016-May-25 08:12 235 1 gusting 10 7.2
2016-May-25 08:02 226 4 gusting 11 7.2
2016-May-25 07:52 243 4 gusting 10 7.2
2016-May-25 07:42 229 5 gusting 10 7.2
2016-May-25 07:12 213 2 gusting 7 6.7
2016-May-25 07:02 213 3 gusting 7 6.7
2016-May-25 06:52 226 6.7
2016-May-25 06:42 213 2 gusting 8 6.7
2016-May-25 06:32 219 0 gusting 10 6.7
2016-May-25 06:12 219 1 gusting 5 6.7
2016-May-25 06:02 212 1 gusting 6 6.7
2016-May-25 05:52 218 6.7
2016-May-25 05:42 212 1 gusting 5 6.7
2016-May-25 05:32 234 1 gusting 6 6.7
2016-May-25 05:22 244 2 gusting 6 6.7
2016-May-25 05:02 232 0 gusting 5 6.7
2016-May-25 04:42 233 2 gusting 7 6.7
2016-May-25 04:32 218 0 gusting 6 6.7
2016-May-25 04:22 222 6.7
2016-May-25 04:12 223 0 gusting 6 6.7
2016-May-25 04:02 241 0 gusting 5 6.1
2016-May-25 03:52 253 6.7
2016-May-25 03:42 251 1 gusting 8 6.7
2016-May-25 03:32 259 6.7
2016-May-25 03:22 244 3 gusting 10 6.7
2016-May-25 03:12 275 1 gusting 7 6.7
2016-May-25 03:02 234 6.1
2016-May-25 02:52 275 1 gusting 7 6.7
2016-May-25 02:42 263 2 gusting 7 6.7
2016-May-25 02:32 244 1 gusting 10 6.7
2016-May-25 02:22 249 1 gusting 10 6.7
2016-May-25 02:12 242 6.7
2016-May-25 02:02 253 2 gusting 5 6.7
2016-May-25 01:52 218 1 gusting 7 6.7
2016-May-25 01:42 230 6.1
2016-May-25 01:32 230 6.1
2016-May-25 01:22 234 0 gusting 6 6.1
2016-May-25 01:12 243 1 gusting 5 6.7
2016-May-25 01:02 243 2 gusting 6 6.7
2016-May-25 00:52 235 0 gusting 4 6.1
2016-May-25 00:42 236 6.1
2016-May-25 00:32 236 6.1
2016-May-25 00:22 236 6.7
2016-May-25 00:02 236 6.7
2016-May-24 23:52 236 0 gusting 4 6.7
2016-May-24 23:42 232 0 gusting 4 6.7
2016-May-24 23:22 186 6.7
2016-May-24 22:52 186 6.7
2016-May-24 22:22 186 2 gusting 5 6.7
2016-May-24 22:12 187 0 gusting 2 6.7
2016-May-24 22:02 243 6.7
2016-May-24 21:52 243 6.7
2016-May-24 21:42 243 6.7
2016-May-24 21:32 243 6.7
2016-May-24 21:12 244 6.7
2016-May-24 21:02 239 0 gusting 4 7.2
2016-May-24 20:22 271 0 gusting 5 7.2
2016-May-24 20:12 248 0 gusting 5 7.2
2016-May-24 19:52 249 0 gusting 7 7.2
2016-May-24 19:32 258 2 gusting 7 7.2
2016-May-24 19:22 238 2 gusting 7 7.2
2016-May-24 19:12 234 2 gusting 8 7.8
2016-May-24 19:02 233 2 gusting 8 7.8
2016-May-24 18:52 232 1 gusting 12 7.8
2016-May-24 18:42 201 2 gusting 7 7.8
2016-May-24 18:32 215 3 gusting 10 7.8
2016-May-24 18:22 207 3 gusting 7 7.8
2016-May-24 18:12 216 3 gusting 6 7.8
2016-May-24 18:02 211 1 gusting 7 7.8
2016-May-24 17:52 245 3 gusting 6 7.8
2016-May-24 17:32 220 2 gusting 8 7.8
2016-May-24 17:22 244 4 gusting 8 7.8
2016-May-24 17:12 208 2 gusting 10 7.8
2016-May-24 17:02 220 2 gusting 10 7.8
2016-May-24 16:42 233 2 gusting 8 8.3
2016-May-24 16:32 231 1 gusting 10 8.3
2016-May-24 16:12 240 5 gusting 10 8.3
2016-May-24 15:42 288 1 gusting 10 8.3
2016-May-24 15:22 235 2 gusting 8 8.9
2016-May-24 15:02 247 4 gusting 10 9.4
2016-May-24 14:42 270 4 gusting 10 8.9
2016-May-24 14:22 280 3 gusting 11 8.9
2016-May-24 14:12 224 2 gusting 12 8.9
2016-May-24 14:02 296 4 gusting 8 8.9
2016-May-24 13:52 266 2 gusting 8 8.3
2016-May-24 13:32 224 0 gusting 6 8.3
2016-May-24 13:22 266 2 gusting 8 8.3
2016-May-24 13:12 240 3 gusting 10 8.9
2016-May-24 13:02 253 8.9
2016-May-24 12:52 253 1 gusting 11 8.9
2016-May-24 12:32 256 2 gusting 10 8.9
2016-May-24 12:22 254 1 gusting 7 8.3
2016-May-24 12:12 239 4 gusting 10 8.3
2016-May-24 11:52 253 1 gusting 10 8.3
2016-May-24 11:42 233 2 gusting 11 8.3
2016-May-24 11:32 260 0 gusting 11 8.3
2016-May-24 11:22 239 3 gusting 10 8.9
2016-May-24 11:12 249 1 gusting 10 8.9
2016-May-24 11:02 261 3 gusting 10 8.9
2016-May-24 10:52 308 1 gusting 11 8.9
2016-May-24 10:42 259 0 gusting 5 8.9
2016-May-24 10:32 230 8.3
2016-May-24 10:12 249 1 gusting 6 8.3
2016-May-24 09:22 112 10.0
2016-May-24 09:02 112 10.0
2016-May-24 08:42 112 9.4
2016-May-24 08:32 112 0 gusting 2 9.4
2016-May-24 08:22 112 9.4
2016-May-24 08:02 112 1 gusting 4 8.9
2016-May-24 07:32 112 8.9
2016-May-24 07:22 112 8.9
2016-May-24 07:12 112 0 gusting 2 8.9
2016-May-24 07:02 112 3 gusting 5 8.9
2016-May-24 06:52 112 1 gusting 5 8.3
2016-May-24 06:42 111 0 gusting 2 8.3
2016-May-24 06:32 112 1 gusting 6 8.3
2016-May-24 06:12 111 1 gusting 4 8.3
2016-May-24 05:22 110 1 gusting 6 7.8
2016-May-24 05:12 110 1 gusting 5 7.8
2016-May-24 05:02 110 1 gusting 6 7.8
2016-May-24 04:52 107 2 gusting 5 7.8
2016-May-24 04:32 101 0 gusting 4 7.8
2016-May-24 04:22 101 1 gusting 6 7.8
2016-May-24 04:02 059 7.8
2016-May-24 03:52 043 7.2
2016-May-24 03:42 033 1 gusting 2 7.2
2016-May-24 03:22 306 7.2
2016-May-24 03:12 297 7.2
2016-May-24 03:02 297 7.2
2016-May-24 02:32 297 7.2
2016-May-24 02:22 297 7.2
2016-May-24 01:52 297 7.2
2016-May-24 01:32 297 7.2
2016-May-24 01:22 297 6.7
2016-May-24 00:52 297 7.2
2016-May-24 00:42 297 7.2
2016-May-24 00:22 297 0 gusting 4 7.2
2016-May-24 00:12 270 7.2
2016-May-23 23:52 269 7.2
2016-May-23 23:42 269 7.2
2016-May-23 23:32 269 7.2
2016-May-23 23:22 261 7.2
2016-May-23 23:12 262 0 gusting 6 7.2
2016-May-23 22:42 268 2 gusting 7 7.8
2016-May-23 22:22 254 7.8
2016-May-23 22:12 249 7.8
2016-May-23 22:02 245 7.8
2016-May-23 21:52 247 0 gusting 5 7.8
2016-May-23 21:32 249 7.8
2016-May-23 21:02 240 7.8
2016-May-23 20:42 245 7.8
2016-May-23 20:32 245 7.8
2016-May-23 20:22 246 0 gusting 2 7.8
2016-May-23 20:12 249 7.8
2016-May-23 20:02 248 0 gusting 4 7.8
2016-May-23 19:52 249 0 gusting 6 7.8
2016-May-23 19:22 240 7.8
2016-May-23 18:52 240 7.8
2016-May-23 18:32 240 7.8
2016-May-23 18:22 242 7.8
2016-May-23 18:12 240 7.8
2016-May-23 17:42 245 7.8
2016-May-23 17:12 251 1 gusting 6 7.8
2016-May-23 16:52 246 8.3
2016-May-23 16:32 259 0 gusting 7 8.3
2016-May-23 16:12 244 0 gusting 4 8.3
2016-May-23 16:02 238 1 gusting 7 8.3
2016-May-23 15:52 252 0 gusting 6 8.3
2016-May-23 15:42 238 2 gusting 6 8.3
2016-May-23 15:32 255 8.3
2016-May-23 15:02 247 8.3
2016-May-23 14:52 245 2 gusting 7 8.3
2016-May-23 14:42 257 8.3
2016-May-23 14:32 267 0 gusting 5 8.3
2016-May-23 14:22 245 1 gusting 6 8.3
2016-May-23 14:12 251 8.3
2016-May-23 14:02 240 0 gusting 6 8.3
2016-May-23 13:52 252 1 gusting 8 8.3
2016-May-23 13:42 260 2 gusting 7 8.3
2016-May-23 13:32 238 0 gusting 5 8.3
2016-May-23 13:22 237 8.3
2016-May-23 13:02 250 1 gusting 10 8.3
2016-May-23 12:42 231 1 gusting 5 8.9
2016-May-23 12:22 243 8.3
2016-May-23 12:02 243 8.3
2016-May-23 11:52 243 8.3
2016-May-23 11:42 245 8.3
2016-May-23 11:32 243 8.3
2016-May-23 11:22 251 1 gusting 5 8.3
2016-May-23 11:12 245 8.3
2016-May-23 11:02 240 0 gusting 6 8.3
2016-May-23 10:52 248 3 gusting 6 8.9
2016-May-23 10:42 222 0 gusting 4 8.9
2016-May-23 10:32 258 1 gusting 5 8.9
2016-May-23 10:22 268 3 gusting 10 8.9
2016-May-23 10:02 250 2 gusting 8 8.9
2016-May-23 09:42 244 4 gusting 10 9.4
2016-May-23 09:32 258 2 gusting 10 9.4
2016-May-23 09:22 243 6 gusting 10 9.4
2016-May-23 09:12 250 6 gusting 10 9.4
2016-May-23 09:02 228 2 gusting 8 10.0